Showing default

SENTINEL 5P, 42969

Orbit data source: Space-Track

SENTINEL 5P, 42969 is an ESA payload satellite in SSO that was launched on Fri, 13 Oct 2017 UTC via an ROKOT launch vehicle from the Plesetsk Missile And Space Complex (PKMTR). Payload-class satellites include a variety of spacecraft equipped with specific instruments for various scientific and technological missions. These include communications satellites like Starlink; space stations such as the ISS; scientific satellites like the Hubble; Earth observation satellites from companies like Planet Labs, Umbra, and HawkEye 360; GPS; miniature CubeSats for education and research; and military/defense satellites.

Loading next visibility...
Identifier
42969, 2017-064A
Orbit
SSO
Country
Flag of ESAESA
Related business
Manufacturer
Airbus (UK)
Mission
Operational Civil Imaging
Bus & Motor
ASTROSAT-L250M, AOCS
Mass
820 kg wet, ~738 kg dry
Launch date (UTC)
2017-10-13 (9 years ago)
Launch vehicle
ROKOT
Launch site
Plesetsk Missile And Space Complex (PKMTR)
Object type
Payload
Rocket body
Debris
Shape & HBR
Hex Cyl + 3 Pan, 2.7 m
Radar Cross Section
9.390 m², Large (>1 m²)

Expand to show TLE details & history
Last TLE update: 2 days ago

TLE from 2 days ago
0 SENTINEL 5P
1 42969U 17064A   26171.44423655  .00000041  00000-0  40558-4 0  9999
2 42969  98.7925 113.5524 0000991  87.3098 272.8191 14.19519441450027
Epoch: 2026-06-20T10:39Z
TLE epoch observation values (Epoch: 2026-06-20T10:39:42.037Z)
Latitude
-0.00009°
Longitude
44.96849°
Altitude
829.855 km
Speed
7.438 km/s
True Right ascension
07h 34m 12s
True Declination
0° 00' 00"
Sunlit
Object was in daylight at epoch
Visualization orbit readout
Latitude
Unknown
Longitude
Unknown
Altitude
Unknown
Speed
Unknown
Apparent Right ascension
Unknown
Apparent Declination
Unknown
Sunlit
N/A
Visualization observer readout
Local Sidereal Time
21:25:46
Azimuth
Unknown
Elevation
Unknown
Doppler factor
Unknown
Orbital elements
Apogee altitude
824.855 km
Perigee altitude
823.428 km
Semi-major axis
7,202.279 km
Eccentricity
0.0001
Inclination
98.7925°
RAAN
113.5524°
Arg. of periapsis
87.3098°
True anomaly
272.80776°
Mean anomaly
272.8191°
Eccentric anomaly
272.81343°
Mean motion
3.5509 °/min
Orbital period
101.38 mins
BSTAR
0.000040558
Loading maneuver chart data...
Computing Atmospheric mass density...
Loading historical data...
Loading historical data...
Loading historical data...
Loading historical data...
Loading historical data...
Loading historical data...
Loading historical data...
Other satellites on launch #64 in the year 2017 (2017-10-13 UTC)

Documentation

Showing up to 5 results
|